Change the Weather History Date:

Thursday, November 14, 2013

  Actual Average (KMGW) Record (KMGW)
Temperature  
Mean Temperature 32 °F 46 °F  
Max Temperature 42 °F 54 °F 78 °F (1993)
Min Temperature 23 °F 37 °F 10 °F (1986)
Degree Days  
Heating Degree Days 32 19  
Month to date heating degree days 243  
Since 1 July heating degree days 685  
Cooling Degree Days 0 0  
Month to date cooling degree days 0  
Year to date cooling degree days 813  
Moisture  
Dew Point 3 °F    
Average Humidity 32    
Maximum Humidity 74    
Minimum Humidity 13    
Precipitation  
Precipitation 0.00 in 0.12 in 0.90 in (2007)
Month to date precipitation 1.56  
Year to date precipitation 37.02  
Sea Level Pressure  
Sea Level Pressure 30.23 in    
Wind  
Wind Speed 12 mph (SW)    
Max Wind Speed 16 mph    
Max Gust Speed 29 mph    
Visibility 10 miles    
Events      
T = Trace of Precipitation, MM = Missing Value Source: NWS Daily Summary

Daily Weather History Graph

Daily Weather History Graph

Search for Another Location

Airport or City:

Trip Planner

Search our weather history database for the weather conditions in past years. The results will help you decide how hot, cold, wet, or windy it might be!

Date:

Astronomy

Nov. 14, 2013 Rise Set
Actual Time 7:00 AM EST 5:02 PM EST
Civil Twilight 6:31 AM EST 5:31 PM EST
Nautical Twilight 5:59 AM EST 6:03 PM EST
Astronomical Twilight 5:27 AM EST 6:35 PM EST
Moon 3:22 PM EST (11/14) 3:54 AM EST (11/14)
Length of Visible Light 10h 59m
Length of Day
10h 01m
Waxing Gibbous, 91% of the Moon is Illuminated
Nov 14
Waxing Gibbous
Nov 17
Full
Nov 25
Last Quarter
Dec 2
New
Dec 9
First Quarter

Hourly Weather History & Observations

Time (EST) Temp. Windchill Dew Point Humidity Pressure Visibility Wind Dir Wind Speed Gust Speed Precip Events Conditions
12:05 AM 23.0 °F 11.1 °F 15.8 °F 74% 30.28 in 10.0 mi WSW 12.7 mph 21.9 mph N/A   Clear
12:25 AM 23.0 °F 11.1 °F 14.0 °F 68% 30.27 in 10.0 mi WSW 12.7 mph 19.6 mph N/A   Clear
12:45 AM 23.0 °F 11.7 °F 14.0 °F 68% 30.27 in 10.0 mi WSW 11.5 mph 20.7 mph N/A   Clear
1:05 AM 23.0 °F 10.6 °F 14.0 °F 68% 30.26 in 10.0 mi WSW 13.8 mph 18.4 mph N/A   Clear
1:25 AM 23.0 °F 11.1 °F 14.0 °F 68% 30.26 in 10.0 mi WSW 12.7 mph 18.4 mph N/A   Clear
1:45 AM 23.0 °F 10.1 °F 12.2 °F 63% 30.26 in 10.0 mi WSW 15.0 mph 20.7 mph N/A   Clear
2:05 AM 23.0 °F 10.6 °F 12.2 °F 63% 30.26 in 10.0 mi WSW 13.8 mph 20.7 mph N/A   Clear
2:25 AM 23.0 °F 10.6 °F 12.2 °F 63% 30.26 in 10.0 mi WSW 13.8 mph 19.6 mph N/A   Clear
2:45 AM 23.0 °F 11.7 °F 14.0 °F 68% 30.26 in 10.0 mi WSW 11.5 mph 21.9 mph N/A   Clear
3:05 AM 23.0 °F 10.6 °F 12.2 °F 63% 30.26 in 10.0 mi WSW 13.8 mph 18.4 mph N/A   Clear
3:25 AM 24.8 °F 14.0 °F 12.2 °F 59% 30.26 in 10.0 mi WSW 11.5 mph 19.6 mph N/A   Clear
3:45 AM 24.8 °F 12.9 °F 12.2 °F 59% 30.25 in 10.0 mi WSW 13.8 mph 23.0 mph N/A   Clear
4:05 AM 26.6 °F 15.2 °F 12.2 °F 55% 30.25 in 10.0 mi WSW 13.8 mph 23.0 mph N/A   Clear
4:25 AM 26.6 °F 16.2 °F 10.4 °F 51% 30.25 in 10.0 mi WSW 11.5 mph 23.0 mph N/A   Clear
4:45 AM 26.6 °F 15.7 °F 10.4 °F 51% 30.24 in 10.0 mi WSW 12.7 mph 20.7 mph N/A   Clear
5:05 AM 26.6 °F 16.8 °F 10.4 °F 51% 30.25 in 10.0 mi SW 10.4 mph 19.6 mph N/A   Clear
5:25 AM 26.6 °F 17.5 °F 8.6 °F 47% 30.25 in 10.0 mi SW 9.2 mph - N/A   Clear
5:50 AM 26.6 °F 15.7 °F 10.4 °F 51% 30.25 in 10.0 mi SW 12.7 mph 20.7 mph N/A   Clear
6:10 AM 26.6 °F 15.7 °F 8.6 °F 47% 30.26 in 10.0 mi SW 12.7 mph 18.4 mph N/A   Clear
6:30 AM 26.6 °F 16.2 °F 6.8 °F 43% 30.25 in 10.0 mi SW 11.5 mph 18.4 mph N/A   Clear
6:50 AM 26.6 °F 16.8 °F 6.8 °F 43% 30.26 in 10.0 mi WSW 10.4 mph 21.9 mph N/A   Clear
7:10 AM 26.6 °F 16.2 °F 6.8 °F 43% 30.27 in 10.0 mi WSW 11.5 mph 20.7 mph N/A   Clear
7:30 AM 28.4 °F 17.5 °F 8.6 °F 43% 30.27 in 10.0 mi WSW 13.8 mph 21.9 mph N/A   Clear
7:50 AM 28.4 °F 18.5 °F 8.6 °F 43% 30.28 in 10.0 mi WSW 11.5 mph 21.9 mph N/A   Clear
8:10 AM 30.2 °F 19.3 °F 5.0 °F 34% 30.28 in 10.0 mi WSW 15.0 mph 28.8 mph N/A   Clear
8:30 AM 30.2 °F 20.2 °F 5.0 °F 34% 30.28 in 10.0 mi WSW 12.7 mph 23.0 mph N/A   Clear
8:50 AM 30.2 °F 19.8 °F 3.2 °F 32% 30.28 in 10.0 mi WSW 13.8 mph 20.7 mph N/A   Clear
9:10 AM 32.0 °F 22.1 °F 3.2 °F 30% 30.28 in 10.0 mi WSW 13.8 mph 21.9 mph N/A   Clear
9:30 AM 32.0 °F 23.0 °F 1.4 °F 27% 30.28 in 10.0 mi WSW 11.5 mph 19.6 mph N/A   Clear
9:50 AM 33.8 °F 24.3 °F 1.4 °F 25% 30.28 in 10.0 mi WSW 13.8 mph 20.7 mph N/A   Clear
10:10 AM 33.8 °F 24.3 °F 1.4 °F 25% 30.27 in 10.0 mi WSW 13.8 mph 18.4 mph N/A   Clear
10:30 AM 35.6 °F 26.6 °F 1.4 °F 24% 30.27 in 10.0 mi WSW 13.8 mph 20.7 mph N/A   Clear
10:50 AM 35.6 °F 26.6 °F 1.4 °F 24% 30.27 in 10.0 mi WSW 13.8 mph 25.3 mph N/A   Clear
11:10 AM 35.6 °F 26.2 °F 1.4 °F 24% 30.27 in 10.0 mi WSW 15.0 mph 24.2 mph N/A   Clear
11:30 AM 35.6 °F 26.6 °F 1.4 °F 24% 30.26 in 10.0 mi WSW 13.8 mph 20.7 mph N/A   Clear
11:50 AM 35.6 °F 27.5 °F -0.4 °F 22% 30.25 in 10.0 mi WSW 11.5 mph 20.7 mph N/A   Clear
12:10 PM 37.4 °F 30.3 °F -0.4 °F 20% 30.24 in 10.0 mi SW 10.4 mph 16.1 mph N/A   Clear
12:30 PM 37.4 °F 29.8 °F -2.2 °F 19% 30.23 in 10.0 mi WSW 11.5 mph 19.6 mph N/A   Clear
12:50 PM 37.4 °F 30.3 °F -4.0 °F 17% 30.23 in 10.0 mi WSW 10.4 mph 17.3 mph N/A   Clear
1:10 PM 41.0 °F 35.8 °F -4.0 °F 15% 30.22 in 10.0 mi WSW 8.1 mph - N/A   Clear
1:30 PM 41.0 °F 34.7 °F -5.8 °F 14% 30.22 in 10.0 mi West 10.4 mph 17.3 mph N/A   Clear
1:50 PM 42.8 °F 37.5 °F -4.0 °F 14% 30.22 in 10.0 mi SW 9.2 mph 16.1 mph N/A   Clear
2:10 PM 42.8 °F 36.2 °F -4.0 °F 14% 30.21 in 10.0 mi WSW 12.7 mph 17.3 mph N/A   Clear
2:30 PM 42.8 °F 37.5 °F -5.8 °F 13% 30.21 in 10.0 mi WSW 9.2 mph - N/A   Clear
2:50 PM 42.8 °F 38.0 °F -5.8 °F 13% 30.21 in 10.0 mi WSW 8.1 mph - N/A   Clear
3:10 PM 42.8 °F 38.0 °F -4.0 °F 14% 30.21 in 10.0 mi West 8.1 mph - N/A   Clear
3:30 PM 42.8 °F 38.6 °F -4.0 °F 14% 30.21 in 10.0 mi West 6.9 mph - N/A   Clear
3:50 PM 42.8 °F 38.6 °F -2.2 °F 15% 30.21 in 10.0 mi WSW 6.9 mph - N/A   Clear
4:10 PM 42.8 °F 37.0 °F -0.4 °F 16% 30.21 in 10.0 mi SW 10.4 mph - N/A   Clear
4:30 PM 41.0 °F 35.8 °F -0.4 °F 18% 30.21 in 10.0 mi SW 8.1 mph 17.3 mph N/A   Clear
4:50 PM 39.2 °F 33.0 °F 1.4 °F 21% 30.21 in 10.0 mi SW 9.2 mph 16.1 mph N/A   Clear
5:10 PM 37.4 °F 29.8 °F 1.4 °F 22% 30.20 in 10.0 mi SSW 11.5 mph 17.3 mph N/A   Clear
5:30 PM 37.4 °F 28.5 °F 3.2 °F 24% 30.20 in 10.0 mi SSW 15.0 mph 18.4 mph N/A   Clear
5:50 PM 37.4 °F 28.9 °F 1.4 °F 22% 30.21 in 10.0 mi SSW 13.8 mph 19.6 mph N/A   Clear
6:10 PM 37.4 °F 28.5 °F 3.2 °F 24% 30.21 in 10.0 mi SSW 15.0 mph - N/A   Clear
6:30 PM 37.4 °F 28.2 °F 1.4 °F 22% 30.19 in 10.0 mi SSW 16.1 mph 21.9 mph N/A   Clear
6:50 PM 37.4 °F 28.9 °F -0.4 °F 20% 30.20 in 10.0 mi SSW 13.8 mph 19.6 mph N/A   Clear
7:10 PM 37.4 °F 29.3 °F -0.4 °F 20% 30.20 in 10.0 mi SSW 12.7 mph 23.0 mph N/A   Clear
7:30 PM 37.4 °F 29.3 °F -2.2 °F 19% 30.19 in 10.0 mi SW 12.7 mph - N/A   Clear
7:50 PM 37.4 °F 28.9 °F -2.2 °F 19% 30.19 in 10.0 mi SSW 13.8 mph 19.6 mph N/A   Clear
8:10 PM 39.2 °F 31.2 °F -4.0 °F 16% 30.19 in 10.0 mi SSW 13.8 mph 19.6 mph N/A   Clear
8:30 PM 37.4 °F 28.9 °F -4.0 °F 17% 30.18 in 10.0 mi SSW 13.8 mph - N/A   Clear
8:50 PM 37.4 °F 28.9 °F -4.0 °F 17% 30.18 in 10.0 mi SSW 13.8 mph - N/A   Clear
9:10 PM 37.4 °F 29.3 °F -4.0 °F 17% 30.19 in 10.0 mi SSW 12.7 mph - N/A   Clear
9:30 PM 37.4 °F 29.8 °F -4.0 °F 17% 30.19 in 10.0 mi SW 11.5 mph - N/A   Clear
9:50 PM 37.4 °F 29.3 °F -4.0 °F 17% 30.19 in 10.0 mi SW 12.7 mph 19.6 mph N/A   Clear
10:10 PM 39.2 °F 31.6 °F -2.2 °F 17% 30.19 in 10.0 mi SW 12.7 mph 19.6 mph N/A   Clear
10:30 PM 39.2 °F 32.0 °F -0.4 °F 19% 30.19 in 10.0 mi SW 11.5 mph 18.4 mph N/A   Clear
10:50 PM 37.4 °F 29.8 °F -0.4 °F 20% 30.19 in 10.0 mi SW 11.5 mph 20.7 mph N/A   Clear
11:10 PM 37.4 °F 30.8 °F -0.4 °F 20% 30.18 in 10.0 mi SW 9.2 mph - N/A   Clear
11:30 PM 39.2 °F 32.5 °F -2.2 °F 17% 30.19 in 10.0 mi WSW 10.4 mph 16.1 mph N/A   Clear
11:50 PM 39.2 °F 33.0 °F -0.4 °F 19% 30.18 in 10.0 mi SW 9.2 mph 16.1 mph N/A   Clear